Home > Weather > Wheaton > Past weeks

Flag for USA Past Weather in Wheaton, Illinois, USA — Yesterday and Last 2 Weeks

Now
70 °F

Mostly cloudy.


Feels Like: 65 °F
Forecast: 68 / 81 °F
Wind: 6 mph from Southeast

Location: Dupage Airport

Current Time: Aug 27, 2016 at 8:48:09 AM

Latest Report: Aug 27, 2016 at 7:52 AM


Visibility: 10 mi

Pressure: 30.05 "Hg

Humidity: 93%

Dew Point: 68 °F

Location of WheatonLocation

Past Weather in Wheaton — Graph

°F

Wheaton Temperature Yesterday

Maximum temperature yesterday: 82 °F (at 3:52 PM)
Minimum temperature yesterday: 61 °F (at 5:52 AM)
Average temperature yesterday: 71 °F

High & Low Weather Summary for the Past Weeks

 TemperatureHumidityPressure
High86 °F (Aug 18, 3:52 PM)94% (Aug 12, 10:52 AM)30.21 "Hg (Aug 12, 10:52 AM)
Low52 °F (Aug 22, 5:52 AM)44% (Aug 21, 5:52 PM)29.59 "Hg (Aug 20, 1:52 PM)
Average73 °F76%29.97 "Hg
* Reported Aug 12 7:52 AM — Aug 27 7:52 AM, Wheaton, Weather by CustomWeather, © 2016

Note: Actual official high and low records may vary slightly from our data, if they occured in-between our weather recording intervals... More about our weather records

Advertising

Wheaton Weather History for the Previous 24 Hours

Scroll right to see more
 ConditionsComfort  
Time TempWeatherWind HumidityBarometerVisibility
7:52 AM
Sat, Aug 27
70 °FMostly cloudy.6 mph93%30.05 "Hg10 mi
6:52 AM69 °FRain. Fog.8 mph90%30.06 "Hg5 mi
5:52 AM68 °FLight rain. Mostly cloudy.7 mph90%30.05 "Hg10 mi
4:59 AM68 °FStrong thunderstorms. Fog.3 mph87%30.07 "Hg1 mi
3:52 AM67 °FLight rain. Fog.6 mph90%30.05 "Hg6 mi
2:52 AM68 °FLight rain. Passing clouds.8 mph87%30.06 "Hg10 mi
1:52 AM67 °FLight rain. Passing clouds.3 mph87%30.08 "Hg10 mi
12:52 AM67 °FOvercast.5 mph85%30.11 "Hg10 mi
11:52 PM
Fri, Aug 26
67 °FLight rain. Partly cloudy.10 mph85%30.09 "Hg10 mi
11:03 PM67 °FRain. Fog.7 mph90%30.13 "Hg4 mi
10:55 PM67 °FStrong thunderstorms. Fog.5 mph87%30.13 "Hg2 mi
9:52 PM69 °FPassing clouds.7 mph76%30.11 "Hg10 mi
8:52 PM72 °FPassing clouds.7 mph66%30.11 "Hg10 mi
7:52 PM72 °FSunny.7 mph66%30.11 "Hg10 mi
6:52 PM75 °FSunny.7 mph62%30.09 "Hg10 mi
5:52 PM77 °FSunny.12 mph58%30.10 "Hg10 mi
4:52 PM79 °FSunny.10 mph56%30.09 "Hg10 mi
3:52 PM82 °FSunny.5 mph48%30.09 "Hg10 mi
2:52 PM80 °FSunny.3 mph51%30.10 "Hg10 mi
1:52 PM81 °FSunny.No wind44%30.12 "Hg10 mi
12:52 PM79 °FSunny.5 mph50%30.13 "Hg10 mi
11:52 AM77 °FSunny.5 mph56%30.16 "Hg10 mi
10:52 AM74 °FSunny.8 mph60%30.16 "Hg10 mi
9:52 AM71 °FSunny.3 mph71%30.18 "Hg10 mi
8:52 AM69 °FSunny.7 mph76%30.16 "Hg10 mi
Weather by CustomWeather, © 2016

See weather overviewHow to use our weather pages